Starlink 30875

operational
NORAD ID: 58224 Int'l Des: 2023-170 Owner: SPXS Country: US Constellation: starlink
LEOCIRCULAR

Über Starlink 30875

Beschreibung wird geladen...

Live-Position

3D-Globus wird geladen...

Nächste Überflüge

Höhenverlauf

Altitude vs Time

uPlot chart will show altitude changes over time

Zweizeiliger Elementsatz

1 58224U 23170U 26034.27116512 -.00001260 00000-0 -78223-4 0 9991
2 58224 43.0089 22.7911 0002019 282.0012 78.0604 15.02529932125108
Epoch: 3. Feb. 2026 • Age: 21 hours

Aktueller Status

Höhe 558.9 km
Geschwindigkeit 7.58 km/s
Subsatellitenpunkt 12.03°N, 9.05°W
Startdatum 4. Nov. 2023
Alter 2.2 years
Typ internet

Technische Details

Klassifizierung Payload
Masse 730.00 kg
Trockenmasse 700.00 kg
Gesamtmasse 730.00 kg
Länge 0.30 m
Durchmesser 4.10 m
Spannweite 29.00 m
Form Box + pan
Hersteller SPXS
Bus-Typ Starlink V2M
Phasenstatus In Orbit
Besitzer/Staat SPXS/US

Große Konstellationen

Loading constellations...